www.pogodaiklimat.ru

Погода и климат >> Архив погоды >> Бангладеш >> Саткхира


ПОГОДА в Саткхире

  • Прогноз погоды в Саткхире
  • Монитор погоды в Саткхире

АРХИВ ПОГОДЫ в Саткхире

Время (UTC), дата Ветер
(напр.,м/с)
 
Видим.   Явления Облачность Т
(С)
Тd
(С)
f
(%)
Тe
(С)
Тes
(С)
Комфортность P
(гПа)
Po
(гПа)
Тmin
(С)
Tmax
(С)
R
(мм)
R24
(мм)
S
(см)
09 12.08 ЮВ 1 6000 м {дождь} 6/4 540 м
[Sc Ac trans]
+32.2 +28.0 79 +53 +60 опасность
перегрева
995.9 995.5
12 12.08 штиль 0 6000 м {дождь} 6/6 540 м
[Sc diur, vesp]
+29.2 +26.0 83 +44 +44 опасность
перегрева
995.9 995.5 +32.4 0.4
15 12.08 штиль 0 6000 м в посл. час дождь 9/5 540 м
[Sc Ac As]
+28.2 +28.0 99 +47 +47 опасность
перегрева
998.4 998.0
18 12.08 Ю 1 6000 м {дождь} 10/5 500 м
[Sc As op]
+27.7 +27.0 96 +44 +44 опасность
перегрева
998.8 998.3 13
00 13.08 штиль 0 6000 м 10/5 480 м
[Sc As op]
+27.5 +27.0 97 +43 +43 опасность
перегрева
997.8 997.3
03 13.08 штиль 0 6000 м 8/4 540 м
[Sc As trans]
+29.6 +26.0 81 +44 +50 опасность
перегрева
999.6 999.1 +26.8
06 13.08 ЮВ 1 6000 м слаб. дождь 10/6 270 м
[Frnb As op]
+28.0 +26.0 89 +42 +44 опасность
перегрева
1000.0 999.5 5
09 13.08 Ю 1 5000 м гроза, ливневой дождь 10/6 240 м
[Cb cap As op]
+27.4 +27.0 98 +43 +44 опасность
перегрева
999.3 998.8
12 13.08 штиль 0 6000 м слаб. дождь {гроза} 10/6 300 м
[Frnb As op]
+27.0 +26.0 94 +40 +40 очень
душно
999.8 999.3 +29.8 10
15 13.08 штиль 0 6000 м слаб. дождь 10/6 270 м
[Frnb As op]
+26.4 +25.0 92 +38 +38 очень
душно
1002.2 1001.8
18 13.08 штиль 0 6000 м {дождь} 8/4 540 м
[Sc As trans]
+27.8 +27.0 95 +44 +44 опасность
перегрева
1002.7 1002.3 3
00 14.08 штиль 0 5000 м слаб. дождь 10/6 270 м
[Frnb As op]
+26.2 +26.0 99 +39 +39 очень
душно
1002.3 1001.9 24
03 14.08 штиль 0 6000 м {дождь} 10/5 540 м
[Sc As op]
+27.5 +27.0 97 +43 +45 опасность
перегрева
1003.6 1003.2 +25.0
06 14.08 штиль 0 6000 м в посл. час дождь 10/5 540 м
[Sc As op]
+29.0 +28.0 94 +48 +51 опасность
перегрева
1003.8 1003.4
09 14.08 штиль 0 6000 м {гроза} 10/6 300 м
[St As op]
+28.4 +26.0 87 +43 +44 опасность
перегрева
1003.3 1002.9
12 14.08 ЮВ 1 6000 м {дождь} 10/6 300 м
[St As op]
+29.0 +26.0 84 +44 +44 опасность
перегрева
1002.7 1002.3 +29.2 7
15 14.08 штиль 0 6000 м 10/5 500 м
[Sc As op]
+28.4 +27.0 92 +45 +45 опасность
перегрева
1005.4 1005.0
18 14.08 Ю 1 6000 м 8/4 540 м
[Sc Ac trans]
+28.2 +27.0 93 +44 +44 опасность
перегрева
1006.0 1005.6
21 14.08 штиль 0 6000 м 10/5 480 м
[Sc As op]
+27.6 +27.0 97 +43 +43 опасность
перегрева
1005.6 1005.1
00 15.08 Ю 1 5000 м гроза, ливневой дождь 10/6 270 м
[Cb cap As op]
+25.8 +25.0 95 +37 +37 очень
душно
1005.2 1004.8 6
03 15.08 штиль 0 6000 м слаб. дождь {гроза} 10/6 270 м
[Frnb As op]
+27.0 +25.0 89 +39 +40 очень
душно
1006.4 1006.0 +25.5
06 15.08 штиль 0 6000 м {гроза, дождь} 10/5 540 м
[Sc As op]
+28.0 +26.0 89 +42 +45 опасность
перегрева
1006.2 1005.8 5
09 15.08 штиль 0 6000 м {дождь} 10/6 300 м
[St As op]
+27.4 +25.0 87 +39 +41 очень
душно
1004.8 1004.4
12 15.08 штиль 0 6000 м {дождь} 10/6 300 м
[St As op]
+28.0 +27.0 94 +44 +44 опасность
перегрева
1003.7 1003.3 +28.2 1
15 15.08 штиль 0 6000 м 10/5 540 м
[Sc As op]
+27.7 +27.0 96 +44 +44 опасность
перегрева
1005.0 1004.6
18 15.08 штиль 0 6000 м 10/5 540 м
[Sc As op]
+27.7 +27.0 96 +44 +44 опасность
перегрева
1005.6 1005.2
00 16.08 штиль 0 6000 м {дождь} 10/5 540 м
[Sc As op]
+27.6 +28.0 100 +45 +45 опасность
перегрева
1004.4 1004.0 0.4
03 16.08 штиль 0 6000 м {дождь} 10/5 540 м
[Sc As op]
+29.1 +28.0 94 +48 +50 опасность
перегрева
1005.5 1005.1 +25.4
06 16.08 штиль 0 6000 м {дождь} 8/3 540 м
[Sc As op]
+32.0 +28.0 79 +52 +61 опасность
перегрева
1005.0 1004.5 0.3
09 16.08 штиль 0 6000 м гроза без осадков 8/5 540 м
[Cb cap Ac trans]
+33.8 +28.0 72 +55 +60 опасность
перегрева
1001.8 1001.3
12 16.08 Ю 1 6000 м слаб. дождь {гроза} 10/5 500 м
[Cb calv As op]
+30.0 +28.0 89 +50 +50 опасность
перегрева
1001.9 1001.4 +34.0 0.0
15 16.08 штиль 0 6000 м {дождь} 8/5 540 м
[Sc diur, vesp As op]
+26.4 +25.0 92 +38 +38 очень
душно
1003.6 1003.2
18 16.08 штиль 0 6000 м {дождь} 6/3 750 м
[Cu med, cong Ac As]
+27.0 +26.0 94 +40 +40 очень
душно
1004.1 1003.7 0.6
00 17.08 штиль 0 5000 м гроза, ливневой дождь 10/8 270 м
[Cb cap As op]
+25.5 +25.5 100 +37 +37 очень
душно
1003.2 1002.8 76
03 17.08 штиль 0 5000 м гроза, ливневой дождь 10/8 270 м
[Cb cap As op]
+25.5 +26.0 100 +37 +38 очень
душно
1003.9 1003.5 +25.0
06 17.08 штиль 0 6000 м {гроза, дождь} 10/5 540 м
[Sc As op]
+27.0 +26.0 94 +40 +43 очень
душно
1003.7 1003.3 112
09 17.08 штиль 0 6000 м 10/5 540 м
[Cb calv As op]
+27.4 +25.0 87 +39 +41 очень
душно
1001.9 1001.5
12 17.08 штиль 0 6000 м 6/3 750 м
[Cu hum Ac trans Ci fib]
+28.5 +27.0 92 +45 +45 опасность
перегрева
1001.5 1001.0 +29.0
15 17.08 штиль 0 6000 м 8/3 540 м
[Sc As trans]
+27.2 +26.0 93 +41 +41 опасность
перегрева
1003.8 1003.4
18 17.08 штиль 0 6000 м 5/3 540 м
[Sc Ac trans]
+26.4 +25.0 92 +38 +38 очень
душно
1004.1 1003.7
00 18.08 штиль 0 6000 м в посл. час дождь 10/6 270 м
[Frnb As op]
+26.3 +26.0 98 +39 +39 очень
душно
1003.3 1002.9 1
03 18.08 штиль 0 6000 м 10/5 540 м
[Sc As op]
+29.0 +27.0 89 +46 +47 опасность
перегрева
1003.9 1003.5 +25.0
06 18.08 штиль 0 6000 м 8/5 540 м
[Sc diur, vesp As trans]
+29.5 +27.0 86 +46 +56 опасность
перегрева
1004.3 1003.9
09 18.08 штиль 0 6000 м 6/5 540 м
[Sc diur, vesp Ac trans]
+31.4 +25.0 69 +45 +52 опасность
перегрева
1003.2 1002.8
12 18.08 Ю 1 6000 м 6/6 540 м
[Cb calv]
+29.6 +25.0 76 +42 +43 опасность
перегрева
1003.0 1002.6 +32.3
15 18.08 Ю 1 6000 м 8/4 540 м
[Sc As op]
+28.6 +25.0 81 +41 +41 опасность
перегрева
1005.5 1005.1
18 18.08 Ю 1 6000 м 6/3 540 м
[Sc As op]
+28.0 +26.0 89 +42 +42 опасность
перегрева
1006.5 1006.1
00 19.08 штиль 0 6000 м 3/3 540 м
[Sc]
+27.3 +26.0 93 +41 +41 опасность
перегрева
1005.6 1005.2
03 19.08 штиль 0 6000 м 4/3 540 м
[Sc Ci fib]
+30.0 +25.0 75 +43 +54 опасность
перегрева
1006.4 1006.0 +26.8
06 19.08 Ю 1 7000 м 5/5 540 м
[Sc diur, vesp]
+33.0 +25.0 63 +47 +60 опасность
перегрева
1005.4 1004.9

 

Местоположение метеостанции Саткхира (Бангладеш): широта 22.72 долгота 89.08 высота над уровнем моря 6 м.

В архиве по умолчанию представлена погода в Саткхире за последнюю неделю. Архивные данные за месяц целиком и за предыдущие месяцы, начиная с января 2011 года, Вы можете получить, выбрав интересующий диапазон дат из раскрывающегося списка и нажав кнопку "Ввод!".


*Определитесь, кто Вы:
робот инопланетянин человек

Внимание! Время в таблицах - всемирное. Для получения местного времени необходимо прибавить поправку, которая равна 6.5 ч.

Смотрите также архив погоды в соседних городах и на ближайших метеорологических станциях:

Погода в Бейсирхэте (Западная Бенгалия, Индия) (23 км)
Погода в Монгле (Бангладеш) (45 км)
Погода в Кхулне (Бангладеш) (47 км)
Погода в Джессоре (Бангладеш) (52 км)
Погода в Колкате (Западная Бенгалия, Индия) (65 км)
Погода в Каннинге (Западная Бенгалия, Индия) (67 км)
Погода в Багати (Западная Бенгалия, Индия) (78 км)
Погода в Колкате (Западная Бенгалия, Индия) (80 км)
Погода в Гопалгандж-Садаре (Бангладеш) (82 км)
Погода в Кумархали (Бангладеш) (89 км)

Пояснения к столбцам:

Ветер - указаны скорость ветра в м/с - средняя за 10 мин, порывы в срок и между сроками (в фигурных скобках) и направление, откуда дует ветер: С - северный, СВ - северо-восточный, В - восточный, ЮВ - юго-восточный, Ю - южный, ЮЗ - юго-западный, З - западный, СЗ - северо-западный.
Видимость - горизонтальная дальность видимости в метрах или километрах. При видимости от 1 до 10 км при отсутствии осадков обычно наблюдается дымка, при ухудшении видимости до 1 км и менее - туман. В сухую погоду видимость может ухудшаться дымом, пылью или мглою.
Явления - указаны атмосферные явления, наблюдавшиеся в срок или в последний час перед сроком; фигурными скобками обозначены явления, наблюдавшиеся между сроками (за 1-3 часа до срока); квадратными скобками обозначены град или гололедные отложения с указанием их диаметра в мм.
Облачность - указаны через наклонную черту общая и нижняя облачность в баллах и высота нижней границы облаков в метрах; квадратными скобками обозначены формы облаков: Ci - перистые, Cs - перисто-слоистые, Cc - перисто-кучевые, Ac - высококучевые, As - высокослоистые, Sc - слоисто-кучевые, Ns - слоисто-дождевые, Cu - кучевые, Cb - кучево-дождевые. Подробнее классификацию облаков см. в Атласе облаков (PDF).
T - Температура воздуха - температура, измеренная на высоте 2 м над землей.
Td - Температура точки росы - температура, при понижении до которой содержащийся в воздухе водяной пар достигнет насыщения.
f - Относительная влажность воздуха - влажноcть воздуха, измеренная на высоте 2 м над землей.
Te - Эффективная температура - температура, которую ощущает одетый по сезону человек в тени. Характеристика душности погоды. При расчете учитывается влияние влажности воздуха и скорости ветра на теплоощущения человека.
Tes - Эффективная температура на солнце - температура, которую ощущает человек, с поправкой на солнечный нагрев. Характеристика знойности погоды. Зависит от высоты солнца над горизонтом, облачности и скорости ветра. Ночью, в пасмурную погоду, а также при ветре 12 м/с и более поправка равна нулю.
P - Атмосферное давление - приведенное к уровню моря атмосферное давление.
Po - Атмосферное давление - измеренное на уровне метеостанции атмосферное давление.
Tmin - Минимальная температура - минимум температуры воздуха на высоте 2 м над землей.
Tmax - Максимальная температура - максимум температуры воздуха на высоте 2 м над землей.
R - Количество осадков - Количество выпавших осадков за период времени, мм. При наведении курсора мыши на число - период времени, за который выпало указанное количество осадков.
R24 - Количество осадков - Количество выпавших осадков за 24 часа, мм.
S - Снежный покров - Высота снежного покрова, см. При наведении курсора мыши на число - состояние снежного покрова и степень покрытия местности в баллах.